Simultaneous Nadir Overpasses (SNOs) Predictions

Prediction of SNOs between GOES-15 and TERRA Satellite Orbit:

Table of predicted SNOs for the next 14.0 days since TLE Epoch: 3/19/2022
Index Date Time (GOES-15) GOES-15 Lat,Lon TERRA Lat,Lon Distance(km) Time Diff (sec)
1 03/20/2022 18:42:08 -0.03,-128.16 -0.74,-124.88 372.64 80
2 03/21/2022 07:00:51 0.04,-128.15 -0.37,-130.07 218.49 80
3 03/23/2022 06:51:16 0.04,-128.20 0.27,-127.12 123.48 80
4 03/23/2022 19:09:51 -0.05,-128.23 0.79,-132.28 459.84 80
5 03/25/2022 06:39:01 0.05,-128.25 0.93,-124.16 464.57 80
6 03/25/2022 18:57:35 -0.06,-128.28 0.20,-129.32 118.93 80
7 03/27/2022 18:48:00 -0.06,-128.31 -0.47,-126.36 221.82 80
8 03/28/2022 07:06:43 0.07,-128.31 -0.64,-131.55 369.60 80
9 03/30/2022 06:54:28 0.06,-128.35 0.03,-128.60 28.75 80
10 04/01/2022 06:44:52 0.06,-128.39 0.65,-125.64 312.34 80
11 04/01/2022 19:03:26 -0.07,-128.41 0.41,-130.81 271.36 80
